Powrót do katalogu

COSMOS 2567

AktywnyNawigacjaSSO
NORAD 55978·PAYLOAD·🇷🇺 Russia

Wystrzelony Mar 23, 2023 z Plesetsk Cosmodrome

Loading…

Następne Przeloty (najbliższe 24 godziny)

TLE

ŚwieżeSource: Space-Track

Epoka: Sep 14, 2026, 14:01 UTC

1 55978U 23040A   26257.58461214  .00002896  00000-0  11762-3 0  9991
2 55978  97.3416 184.7358 0003053 106.5721 253.5852 15.25370337193688

Śledź COSMOS 2567 w czasie rzeczywistym z AllMySat

Download on the App Store